Regional Weather Roundup
Issued by NWS

Home | Current Version | Previous Version | Graphics & Text | Print | Product List | Glossary On
Versions: 1 2 3 4 5 6 7 8 9 10 11 12 13 14 15 16 17 18 19 20 21 22 23 24 25 26 27 28 29 30 31 32 33 34 35 36 37 38 39 40 41 42 43 44 45 46 47 48 49 50
000
ASUS43 KMPX 042001
RWRMN
WEATHER ROUNDUP FOR MINNESOTA
NATIONAL WEATHER SERVICE TWIN CITIES/CHANHASSEN MN
300 PM CDT MON MAY 04 2015


NOTE: "FAIR" INDICATES FEW OR NO CLOUDS BELOW 12,000 FEET WITH NO
SIGNIFICANT WEATHER AND/OR OBSTRUCTIONS TO VISIBILITY. N/A MEANS
CURRENT SKY AND/OR WEATHER CONDITIONS ARE NOT AVAILABLE.

MNZ060>063-068>070-042100-
   Twin Cities Metro

CITY           SKY/WX    TMP DP  RH WIND       PRES   REMARKS
TWIN CITIES    MOSUNNY   69  31  24 N12G17    30.17F
ST PAUL        SUNNY     70  32  24 VRB5      30.18F
CRYSTAL        SUNNY     71  27  19 N10       30.17F
LAKEVILLE      MOSUNNY   66  32  28 NE7       30.17F
EDEN PRAIRIE   SUNNY     69  34  27 NE9       30.16F
SOUTH ST PAUL  SUNNY     70  30  23 N8        30.17F
LAKE ELMO      FAIR      68  34  28 E8        30.18F
$$
MNZ001>005-007-008-013>017-022>024-027-028-042100-
   Northwest Minnesota

CITY           SKY/WX    TMP DP  RH WIND       PRES   REMARKS
BEMIDJI        SUNNY     63  26  24 NE7       30.21F
HALLOCK        PTSUNNY   68  25  19 SW13      30.18F
ROSEAU         SUNNY     64  25  22 SW13      30.20F
WARROAD        MOSUNNY   64  34  32 W12G17    30.20F
THIEF RVR FALL PTSUNNY   63  27  25 NW8       30.21F
CROOKSTON      MOSUNNY   66  28  24 NW12      30.20F
FOSSTON        SUNNY     66  21  18 W3        30.21F
DETROIT LAKES  PTSUNNY   63  32  31 SE3       30.23F
MOORHEAD       PTSUNNY   66  25  20 NW7       30.22S
PARK RAPIDS    PTSUNNY   63  28  26 CALM      30.21S
MAHNOMEN       FAIR      65  28  24 N6        30.21S
$$
MNZ006-009>011-018-025>026-042100-
   North Central Minnesota

CITY           SKY/WX    TMP DP  RH WIND       PRES   REMARKS
BAUDETTE       MOSUNNY   61  27  27 NW9       30.21F
FLAG ISLAND    PTSUNNY   54  34  47 SE7       30.18F
INTL FALLS     PTSUNNY   60  28  29 NW9       30.21S
WASKISH        SUNNY     63  32  31 CALM      30.22F
BIG FORK       SUNNY     64  21  19 N3        30.20F
LONGVILLE      PTSUNNY   63  23  22 NW5       30.22S
GRAND RAPIDS   MOSUNNY   63  25  23 W8G16     30.21F
CRANE LAKE     SUNNY     61  21  21 NW12      30.23S
COOK           SUNNY     63  25  23 N5G22     30.21S
WALKER         FAIR      62  27  27 SE5       30.22S
$$
MNZ012-019>021-037-042100-
   Northeast Minnesota

CITY           SKY/WX    TMP DP  RH WIND       PRES   REMARKS
DULUTH         MOSUNNY   64  18  17 NW5G16    30.19S
ELY            SUNNY     61  19  20 NW8G21    30.20R
HIBBING        MOSUNNY   66  17  15 NW10      30.19F
EVELETH        SUNNY     63  19  19 NW7G17    30.21S
DULUTH HARBOR  MOSUNNY   66  23  19 E5        30.19S
TWO HARBORS    MOSUNNY   70  30  23 CALM      30.16S
SILVER BAY     MOSUNNY   68  25  19 SE5       30.16S
GRAND MARAIS     N/A     49  37  63 W7        30.18R
G MARAIS ARPRT SUNNY     61  21  21 NW10G17   30.19R
$$
MNZ029>031-032-039>041-046>048-054>057-064-042100-
   West Central Minnesota

CITY           SKY/WX    TMP DP  RH WIND       PRES   REMARKS
FERGUS FALLS   CLOUDY    66  32  28 NE7       30.21F
WHEATON        CLOUDY    66  28  24 N13       30.21F
MORRIS         PTSUNNY   72  27  18 NE7       30.19S
ALEXANDRIA     PTSUNNY   65  28  24 VRB5      30.22F
ELBOW LAKE     FAIR      63  30  28 E7        30.21S
WADENA         PTSUNNY   63  34  34 CALM      30.21F
GLENWOOD       MOSUNNY   66  28  24 NE5       30.21F
APPLETON       MOSUNNY   72  19  14 NE8       30.18S
BENSON         MOSUNNY   70  19  14 E6        30.19F
ORTONVILLE     PTSUNNY   70  25  18 NE8G16    30.18F
MADISON        MOSUNNY   70  19  14 E6        30.18F
WILLMAR        FAIR      70  28  21 N8        30.20F
$$
MNZ033>034-036-042>043-049>051-058-059-042100-
   Central Minnesota

CITY           SKY/WX    TMP DP  RH WIND       PRES   REMARKS
ST CLOUD       SUNNY     69  29  22 N8        30.20S
SAUK CENTRE    FAIR      65  29  25 NE6       30.21S
PAYNESVILLE    SUNNY     65  30  27 CALM      30.21S
AITKIN         PTSUNNY   68   7   9 NW8       30.20S
PINE RIVER     PTSUNNY   63  34  34 N5        30.25S
BRAINERD       PTSUNNY   63  28  26 N8        30.23S
STAPLES        PTSUNNY   63  27  25 N6        30.22S
LONG PRAIRIE   FAIR      63  32  31 NW6       30.22S
LITTLE FALLS   MOSUNNY   64  30  27 N6        30.21S
LITCHFIELD     SUNNY     70  28  21 N8        30.19F
BUFFALO        SUNNY     69  29  22 N7        30.20F
MAPLE LAKE     SUNNY     70  35  27 NE8G16    30.20F
$$
MNZ037-044-045-052-053-042100-
   East Central Minnesota

CITY           SKY/WX    TMP DP  RH WIND       PRES   REMARKS
PRINCETON      SUNNY     70  27  19 N12G17    30.20S
MORA           MOSUNNY   64  32  29 N5        30.21F
CAMBRIDGE      SUNNY     72  45  37 NE6       30.17F
RUSH CITY      SUNNY     68  29  23 CALM      30.19F
MOOSE LAKE     MOSUNNY   63  28  27 N5        30.18F
HINCKLEY       FAIR      66  28  24 N5        30.19F
CLOQUET        MOSUNNY   64  14  14 NW8       30.20S
MCGREGOR       PTSUNNY   63  25  23 N10       30.21S
$$
MNZ071>073-080-081-089-090-097-098-042100-
   Southwest Minnesota

CITY           SKY/WX    TMP DP  RH WIND       PRES   REMARKS
MONTEVIDEO     SUNNY     73  25  16 E5        30.19S
GRANITE FALLS  SUNNY     71  29  21 N8G21     30.18F
CANBY          SUNNY     72  25  17 NE14      30.18F
MARSHALL       SUNNY     72  27  18 E8G17     30.16F
REDWOOD FALLS  SUNNY     73  25  16 NE9G17    30.16F
OLIVIA         SUNNY     68  27  21 NE7G18    30.17S
PIPESTONE      MOSUNNY   70  19  14 E10G20    30.16S
WINDOM         PTSUNNY   70  27  19 NE12G17   30.17S
WORTHINGTON    CLOUDY    68  28  22 E13G23    30.16F
JACKSON        CLOUDY    70  23  17 E14G22    30.17F
TRACY          MOSUNNY   73  29  19 NE7G22    30.17S
SLAYTON        PTSUNNY   70  23  17 CALM      30.17F
$$
MNZ065>067-074>077-082>085-091>093-042100-
   South Central Minnesota

CITY           SKY/WX    TMP DP  RH WIND       PRES   REMARKS
MANKATO        MOSUNNY   66  30  26 N10       30.17S
NEW ULM        MOSUNNY   70  25  18 NE8G17    30.16F
ST JAMES       PTSUNNY   70  25  18 NE13G22   30.18S
FAIRMONT       CLOUDY    70  28  21 E14       30.16S
GLENCOE        SUNNY     71  35  26 NE8       30.17S
FARIBAULT      PTSUNNY   68  34  28 NE8       30.17F
OWATONNA       PTSUNNY   66  34  30 NE3       30.17S
WASECA         PTSUNNY   64  34  32 NE9       30.18S
ALBERT LEA     PTSUNNY   68  34  28 NE12G18   30.16F
$$
MNZ078>079-086>088-094>096-042100-
   Southeast Minnesota

CITY           SKY/WX    TMP DP  RH WIND       PRES   REMARKS
ROCHESTER      PTSUNNY   66  39  37 E7        30.18S
RED WING       MOSUNNY   70  30  23 NE9G18    30.16S
STANTON        MOSUNNY   71  29  21 NE15      30.15S
DODGE CENTER   PTSUNNY   66  34  30 N12       30.17F
WINONA         PTSUNNY   70  37  30 E6        30.17R
AUSTIN         PTSUNNY   64  37  36 NE9       30.17S
PRESTON        PTSUNNY   65  40  38 N12       30.17S
$$
ABBREVIATIONS USED IN REMARKS
   TC - TEMPERATURES IN CELSIUS
  WCI - WIND CHILL INDEX
   HX - HEAT INDEX
  VSB - VISIBILITY
$$


USA.gov is the U.S. government's official web portal to all federal, state and local government web resources and services.